Location: Strawberry
(45.6646°N, 111.9596°W)
Time: 14:39:00
(UTC+00:00)

Tiangong - Pass Details

Date: 18 August 2022
Orbit: 377 x 382 km, 41.5° (Epoch: 27 September)

Event Time Altitude Azimuth Distance (km) Brightness Sun altitude
Rises 04:32:15 0° 252° (WSW) 2,234 2.1 -18.7°
Reaches altitude 10° 04:34:24 10° 243° (WSW) 1,382 0.9 -18.9°
Enters shadow 04:35:56 23° 225° (SW) 847 -0.4 -19.1°
